Regional Weather Roundup
Issued by NWS Grand Forks, ND

Home | Current Version | Previous Version | Text Only | Print | Product List | Glossary On
Versions: 1 2 3 4 5 6 7 8 9 10 11 12 13 14 15 16 17 18 19 20 21 22 23 24 25 26 27 28 29 30 31 32 33 34 35 36 37 38 39 40 41 42 43 44 45 46 47 48 49 50
000
ASUS43 KFGF 191131
RWRFGF
PRAIRIE TO PINES  WEATHER ROUNDUP
NATIONAL WEATHER SERVICE EASTERN NORTH DAKOTA/GRAND FORKS ND
600 AM CDT FRI SEP 19 2014

 **SATELLITE DATA USED TO AUGMENT SKY COVER AT AUTOMATED STATIONS**
 *****  WEATHER ACROSS EASTERN NORTH DAKOTA  *****

CITY           SKY/WX    TMP DP  RH WIND       PRES   REMARKS
GRAND FORKS    LGT RAIN  64  57  78 S16       29.57F
GRAND FRKS AFB CLOUDY    65  61  86 SW15G25   29.57F
GRAND FRKS NWS   N/A     63 N/A N/A S24         N/A
DEVILS LAKE    CLOUDY    66  57  72 SW16      29.52F
FARGO          CLOUDY    64  56  75 S20G28    29.67F
WAHPETON ARPT  CLOUDY    61  52  72 SE13      29.73F
$$

 ***** WEATHER ACROSS CENTRAL AND WESTERN NORTH DAKOTA  *****

CITY           SKY/WX    TMP DP  RH WIND       PRES   REMARKS
BISMARCK       CLOUDY    68  61  78 SW13      29.62R
MINOT          CLOUDY    65  54  67 SW9       29.52R
JAMESTOWN      CLOUDY    64  60  87 S12       29.62S
MINOT AFB      CLOUDY    63  55  77 W8        29.50F
GARRISON         N/A     62  58  86 S3        29.57R
WILLISTON      CLOUDY    65  53  65 W13       29.57R
DICKINSON      CLOUDY    64  54  69 W10       29.64R
HETTINGER      CLOUDY    59  55  87 NW6       29.69F
$$

 *****  OTHER AIRPORT OBSERVATIONS IN OUR AREA  *****

CITY           SKY/WX    TMP DP  RH WIND       PRES   REMARKS
WALHALLA         N/A     66  63  88 SW14G21   29.50F
GRAFTON AIRPOR FAIR      64  59  82 S13G22    29.54S
VALLEY CITY AR PTSUNNY   64  64 100 S12       29.63F
CANDO          FAIR      64  59  82 SW8       29.52S
CAVALIER APRT  FAIR      66  59  77 S9G18     29.51F
GWINNER        MOSUNNY   64  63  94 S17G24    29.64F
SHEYENNE NWR     N/A     65  59  81 S8        29.95
ROLLA          FAIR      63  63 100 SW8       29.51F
 ***** THE ABOVE OBSERVATIONS ARE NON NWS ARE NOT QUALITY
       CONTROLLED AND MAY MIS-REPORT RAIN FOR SNOW...
$$

  *****  WEATHER ACROSS NORTHERN MINNESOTA  *****

CITY           SKY/WX    TMP DP  RH WIND       PRES   REMARKS
FLAG ISLAND    LGT RAIN  57  55  94 S13       29.56F
WARROAD        RAIN      63  57  82 S10G18    29.62R
ROSEAU         LGT RAIN  61  55  82 S13       29.60S
HALLOCK        LGT RAIN  64  57  77 S16       29.55S
THF RVR FALLS  CLOUDY    64  55  72 S22G28    29.61F
BAUDETTE       CLOUDY    61  54  77 S13       29.63F
WASKISH        CLOUDY    61  55  82 S10G22    29.68F
CROOKSTON      CLOUDY    63  57  82 S18G29    29.62F
STEPHEN NDAWN    N/A     64  57  77 S18         N/A
GREENBUSH NDAW   N/A     64  57  77 S15         N/A
$$
  *****  WEATHER ACROSS CENTRAL AND WEST MINNESOTA  *****

CITY           SKY/WX    TMP DP  RH WIND       PRES   REMARKS
FOSSTON        CLOUDY    61  54  77 S23G33    29.67F
BEMIDJI        CLOUDY    60  52  74 S14G24    29.74R
PARK RAPIDS    CLOUDY    60  52  74 S14       29.79S
ELBOW LAKE     CLOUDY    60  55  82 S16G23    29.79F
WADENA         CLOUDY    61  52  72 S12       29.80R
DETROIT LAKES  CLOUDY    63  54  72 S17G25    29.76F
MOORHEAD       CLOUDY    63  59  88 S14G21    29.69F
FERGUS FALLS   CLOUDY    61  52  72 S15       29.77F
MORRIS MN      CLOUDY    63  55  77 S13       29.81S
STAPLES        CLOUDY    59  52  77 S12       29.82S
$$
  *****  WEATHER ELSEWHERE ACROSS MINNESOTA  *****

CITY           SKY/WX    TMP DP  RH WIND       PRES   REMARKS
DULUTH         CLOUDY    54  51  90 S9        29.91R FOG
INTRNTL FALLS  CLOUDY    60  52  74 S13G24    29.69F
ELY            MOCLDY    55  52  88 S13G26    29.82F
CLOQUET        CLOUDY    55  54  94 S7        29.89F
WHEATON        CLOUDY    61  54  77 SE13      29.76F
BRAINERD       CLOUDY    58  52  80 S14G22    29.84F
HIBBING        CLOUDY    57  52  83 S9G18     29.84F
ALEXANDRIA     CLOUDY    60  54  80 S16G23    29.84S
SAINT CLOUD    CLOUDY    62  53  72 S14G23    29.88F
MINNEAPOLIS    MOCLDY    58  51  78 S9        29.95S
$$

  *****  WEATHER ACROSS SOUTH DAKOTA  *****

CITY           SKY/WX    TMP DP  RH WIND       PRES   REMARKS
SIOUX FALLS    DRIZZLE   63  59  87 S16       29.84S
BROOKINGS      NOT AVBL
WATERTOWN      CLOUDY    59  57  93 S16       29.80F FOG
HURON          CLOUDY    62  58  86 SE10G17   29.76F
SISSETON         N/A     64  59  83 S9        29.73F
ABERDEEN       CLOUDY    63  59  87 S20G29    29.67F
MITCHELL       CLOUDY    63  61  93 SE10      29.77F
PIERRE         CLOUDY    64  61  90 S10       29.67R
MOBRIDGE       CLOUDY    64  63  96 S10       29.67S
RAPID CITY     CLOUDY    65  51  60 N8        29.77F
$$

  *****  SOME WEATHER IN NEARBY STATES *****

CITY           SKY/WX    TMP DP  RH WIND       PRES   REMARKS
GLASGOW MT     CLEAR     56  48  74 NW5       29.65R
GREAT FALLS MT PTCLDY    59  42  53 SW15      29.80S
CHEYENNE WY    CLEAR     59  37  44 W9        29.99R
SCOTTSBLUFF NE PTCLDY    56  49  77 N3        29.85R
OMAHA NE       CLOUDY    63  60  90 S15       29.94F FOG
DES MOINES IA  PTCLDY    58  53  84 SE9       30.01S
DAVENPORT IA   CLEAR     52  49  89 SE7       30.10S FOG
CHICAGO IL     PTCLDY    55  49  80 SE5       30.16R
EAU CLAIRE WI  PTCLDY    53  50  89 SE8       30.01F
LA CROSSE WI   PTCLDY    57  51  80 S9        30.04S
$$

  *****  SOME NATIONAL WEATHER *****

CITY           SKY/WX    TMP DP  RH WIND       PRES   REMARKS
LA GUARDIA NY  PTCLDY    55  46  71 NE15G25   30.26R
RALEIGH NC     CLOUDY    65  58  78 E5        30.14R
ATLANTA GA     CLOUDY    70  66  87 E6        30.04R
NEW ORLEANS LA CLOUDY    75  70  84 SE6       29.90F
OKLAHOMA CITY  PTCLDY    66  64  93 CALM      29.97R
ALBUQUERQUE NM CLOUDY    66  58  75 N7        30.07S
SALT LAKE CITY CLOUDY    64  59  83 SW5       29.97S
LOS ANGELES CA MOCLDY    67  62  84 W6        29.88S
BOISE ID       CLEAR     59  47  64 CALM      29.99R
SEATTLE WA     CLOUDY    62  57  83 S7        30.02R
$$

*** WEATHER ACROSS MANITOBA...SASKATCHEWAN AND ONTARIO ***
                ***ONTARIO***

CITY           SKY/WX    TMP DP  RH WIND       PRES   REMARKS
GERALDTON      CLOUDY    46  45  93 S13G24    29.86F
THUNDER BAY    MOCLDY    52  50  93 S10       29.90F
SIOUX LOOKOUT  LGT RAIN  55  52  88 S10G31    29.61F
TORONTO        MOCLDY    41  36  81 NE7       30.31R
BIG TROUT LK   LGT RAIN  46  46 100 S12       29.45F FOG
PICKLE LAKE    CLOUDY    46  45  93 S10G18    29.56
DRYDEN         CLOUDY    57  52  82 S17G25    29.61F
KENORA         CLOUDY    61  54  77 S18G25    29.57F
$$
                *** MANITOBA***

CITY           SKY/WX    TMP DP  RH WIND       PRES   REMARKS
BRANDON        CLOUDY    55  54  94 W9        29.47S
DAUPHIN        CLEAR     57  55  94 W6        29.47R
ISLAND LAKE    CLOUDY    52  52 100 CALM      29.42F
PILOT MOUND    NOT AVBL
THE PAS        NOT AVBL
THOMPSON       DRIZZLE   48  48 100 N3        29.46R
WINNIPEG       CLOUDY    66  61  82 S17       29.47F
LYNN LAKE      CLOUDY    48  41  76 N9        29.52R
CHURCHILL      CLOUDY    43  41  93 W14G20    29.37R
GILLAM         CLOUDY    48  46  93 N8        29.42R
$$
                ***SASKATCHEWAN***

CITY           SKY/WX    TMP DP  RH WIND       PRES   REMARKS
ESTEVAN        MOCLDY   N/A N/A N/A W5          N/A
KINDERSLEY     LGT RAIN  54  52  94 NW7       29.64R
LLOYDMINSTER   CLOUDY    55  48  76 W10       29.61R
PRINCE ALBERT  MOCLDY    50  50 100 W3        29.56R
REGINA         MOCLDY    54  52  94 W9G17     29.54R
YORKTON        MOCLDY    52  50  93 NW6       29.50R
N. BATTLEFORD  CLOUDY    52  50  93 W5        29.61S
LA RONGE       FOG       45  45 100 N3        29.56R VSB 1/2
SASKATOON      CLOUDY    50  50 100 NW3       29.59R
SWIFT CURRENT  CLOUDY    54  50  87 W13       29.60R
$$
NOTE: THESE ARE AUTOMATED STATIONS WITH LIMITED QUALITY CONTROL
      "FAIR" INDICATES FEW OR NO CLOUDS BELOW 12,000 FEET WITH NO
      SIGNIFICANT WEATHER AND/OR OBSTRUCTIONS TO VISIBILITY.
      SKY/WX - SKY CONDITION AND SIGNIFICANT WEATHER.
      TMP - AIR TEMPERATURE.    DP   - DEWPOINT TEMPERATURE.
      RH  - RELATIVE HUMIDITY.  PRES - PRESSURE.
      HX  - HEAT INDEX.         WCI  - WIND CHILL INDEX.
$


USA.gov is the U.S. government's official web portal to all federal, state and local government web resources and services.